Alexandria, LA

5:46 PM CST on February 08, 2016 (GMT -0600)
Alexandria International

Weather History for KAEX - January, 2005

Change the Weather History Date:

Saturday, January 8, 2005

  Actual Average Record
Temperature  
Mean Temperature 50 °F 49 °F  
Max Temperature 57 °F 59 °F 79 °F (1907)
Min Temperature 41 °F 39 °F 17 °F (1942)
Degree Days  
Heating Degree Days 16 16  
Month to date heating degree days 128  
Since 1 July heating degree days 917  
Moisture  
Dew Point 41 °F    
Average Humidity 75    
Maximum Humidity 89    
Minimum Humidity 53    
Precipitation  
Precipitation 0.00 in 0.15 in 2.90 in (1961)
Month to date precipitation 1.19  
Year to date precipitation 1.19  
Snow  
Snow 0.00 in - T in (1971)
Month to date snowfall  
Since 1 July snowfall  
Snow Depth -    
Sea Level Pressure  
Sea Level Pressure 30.30 in    
Wind  
Wind Speed 7 mph (NNE)    
Max Wind Speed 10 mph    
Max Gust Speed -    
Visibility 10 miles    
Events      
T = Trace of Precipitation, MM = Missing Value Source: NWS Daily Summary

Daily Weather History Graph

Daily Weather History Graph

Search for Another Location

Airport or City:

Trip Planner

Search our weather history database for the weather conditions in past years. The results will help you decide how hot, cold, wet, or windy it might be!

Date:

Astronomy

Jan. 08, 2005 Rise Set
Actual Time 7:10 AM CST 5:24 PM CST
Civil Twilight 6:43 AM CST 5:50 PM CST
Nautical Twilight 6:13 AM CST 6:20 PM CST
Astronomical Twilight 5:44 AM CST 6:50 PM CST
Moon 5:23 AM CST 3:22 PM CST
Length of Visible Light 11h 07m
Length of Day
10h 14m
Waning Crescent, 5% of the Moon is Illuminated
Jan 8
Waning Crescent
Jan 10
New
Jan 17
First Quarter
Jan 25
Full
Feb 2
Last Quarter

Hourly Weather History & Observations

Time (CST) Temp. Windchill Dew Point Humidity Pressure Visibility Wind Dir Wind Speed Gust Speed Precip Events Conditions
12:34 AM 48.2 °F - 42.8 °F 82% 30.19 in 10.0 mi NNW 9.2 mph - N/A   Overcast
12:53 AM 48.0 °F - 44.1 °F 86% 30.21 in 10.0 mi NNW 5.8 mph - N/A   Overcast
1:53 AM 48.0 °F - 43.0 °F 83% 30.22 in 10.0 mi NNW 6.9 mph - N/A   Overcast
2:53 AM 46.9 °F - 42.1 °F 83% 30.23 in 10.0 mi North 6.9 mph - N/A   Overcast
3:53 AM 46.9 °F - 41.0 °F 80% 30.24 in 10.0 mi North 9.2 mph - N/A   Overcast
4:53 AM 46.9 °F - 41.0 °F 80% 30.26 in 10.0 mi North 6.9 mph - N/A   Overcast
5:53 AM 46.9 °F - 39.9 °F 77% 30.27 in 10.0 mi NNE 10.4 mph - N/A   Overcast
6:53 AM 46.0 °F 42.5 °F 39.9 °F 79% 30.30 in 10.0 mi NNE 6.9 mph - N/A   Overcast
7:53 AM 46.0 °F 41.9 °F 39.0 °F 76% 30.32 in 10.0 mi NE 8.1 mph - N/A   Overcast
8:53 AM 46.0 °F 41.9 °F 39.9 °F 79% 30.33 in 10.0 mi NNE 8.1 mph - N/A   Overcast
9:53 AM 46.9 °F - 41.0 °F 80% 30.36 in 10.0 mi NE 5.8 mph - N/A   Overcast
10:53 AM 48.0 °F - 39.9 °F 74% 30.36 in 10.0 mi Variable 4.6 mph - N/A   Overcast
11:53 AM 51.1 °F - 42.1 °F 71% 30.33 in 10.0 mi North 6.9 mph - N/A   Overcast
12:22 PM 51.8 °F - 42.8 °F 71% 30.31 in 10.0 mi NNE 8.1 mph - N/A   Scattered Clouds
12:53 PM 52.0 °F - 41.0 °F 66% 30.32 in 10.0 mi NNE 6.9 mph - N/A   Partly Cloudy
1:53 PM 55.0 °F - 42.1 °F 62% 30.30 in 10.0 mi North 9.2 mph - N/A   Clear
2:53 PM 57.0 °F - 42.1 °F 57% 30.30 in 10.0 mi NNW 5.8 mph - N/A   Clear
3:53 PM 57.9 °F - 41.0 °F 53% 30.31 in 10.0 mi North 6.9 mph - N/A   Clear
4:53 PM 57.0 °F - 41.0 °F 55% 30.32 in 10.0 mi NE 5.8 mph - N/A   Clear
5:53 PM 51.1 °F - 42.1 °F 71% 30.32 in 10.0 mi NNE 4.6 mph - N/A   Clear
6:53 PM 50.0 °F - 41.0 °F 71% 30.34 in 10.0 mi NNE 4.6 mph - N/A   Clear
7:53 PM 48.0 °F - 41.0 °F 77% 30.35 in 10.0 mi ENE 4.6 mph - N/A   Clear
8:53 PM 46.0 °F 43.9 °F 41.0 °F 83% 30.36 in 10.0 mi ENE 4.6 mph - N/A   Clear
9:53 PM 45.0 °F 43.5 °F 39.9 °F 82% 30.35 in 10.0 mi NE 3.5 mph - N/A   Clear
10:53 PM 42.1 °F 39.2 °F 37.9 °F 85% 30.34 in 10.0 mi ESE 4.6 mph - N/A   Clear
11:53 PM 41.0 °F - 37.9 °F 89% 30.33 in 9.0 mi Calm Calm - N/A   Clear